Total_Precipitation_Accumulation
0.51 0.37 0.37 0.45 0.42 0.45 0.60 0.65 0.60 0.38 0.30 0.33 0.33 0.33 0.31 0.30 0.30 0.28 0.29 0.36 0.40 0.43 0.46 0.52 0.54 0.56 0.62 0.70 0.73 0.82 0.91 0.88 0.86 0.90 0.90 0.88 0.93 0.97 1.03 1.11 1.13 1.10 1.06 1.06
0.57 0.37 0.34 0.36 0.31 0.32 0.38 0.38 0.36 0.29 0.31 0.31 0.30 0.28 0.27 0.28 0.32 0.32 0.33 0.39 0.44 0.46 0.50 0.58 0.64 0.73 0.81 0.88 0.91 0.95 1.05 1.05 0.92 0.86 0.86 0.87 0.89 0.93 0.96 1.01 1.04 1.04 1.01 0.99
0.81 0.44 0.60 0.64 0.40 0.36 0.37 0.38 0.36 0.37 0.35 0.29 0.27 0.26 0.28 0.28 0.31 0.35 0.35 0.37 0.42 0.47 0.53 0.62 0.74 0.88 0.98 0.98 0.96 1.02 1.06 1.11 1.06 0.92 0.86 0.86 0.85 0.84 0.85 0.88 0.93 0.94 0.94 0.97
1.13 0.83 1.07 0.60 0.30 0.31 0.32 0.35 0.36 0.36 0.33 0.31 0.31 0.28 0.26 0.26 0.28 0.31 0.36 0.41 0.46 0.53 0.55 0.62 0.76 0.89 0.96 0.99 1.00 1.05 1.08 1.07 1.04 0.93 0.82 0.82 0.85 0.82 0.75 0.76 0.83 0.88 0.90 0.91
1.41 1.09 0.64 0.26 0.21 0.30 0.37 0.41 0.38 0.36 0.32 0.29 0.27 0.23 0.24 0.26 0.27 0.32 0.37 0.41 0.45 0.49 0.52 0.58 0.68 0.79 0.83 0.85 0.87 0.92 0.97 0.98 0.95 0.90 0.84 0.84 0.87 0.83 0.75 0.73 0.76 0.78 0.81 0.86
1.55 1.23 0.62 0.25 0.16 0.22 0.35 0.46 0.34 0.32 0.33 0.32 0.33 0.48 0.37 0.31 0.28 0.27 0.28 0.31 0.36 0.41 0.41 0.46 0.57 0.63 0.66 0.69 0.72 0.75 0.79 0.84 0.89 0.85 0.83 0.86 0.89 0.84 0.80 0.78 0.80 0.83 0.84 0.88
1.33 1.16 0.52 0.22 0.14 0.20 0.51 0.60 0.37 0.34 0.35 0.41 0.52 0.59 0.42 0.32 0.29 0.29 0.28 0.29 0.30 0.34 0.39 0.46 0.57 0.61 0.63 0.63 0.66 0.67 0.66 0.69 0.79 0.83 0.82 0.83 0.85 0.87 0.86 0.85 0.87 0.90 0.89 0.89
1.04 1.25 0.67 0.24 0.23 0.43 0.60 0.41 0.34 0.35 0.39 0.47 0.45 0.34 0.30 0.31 0.32 0.29 0.28 0.29 0.32 0.37 0.43 0.51 0.57 0.58 0.56 0.60 0.62 0.61 0.63 0.64 0.68 0.77 0.78 0.80 0.81 0.80 0.79 0.84 0.90 0.92 0.92 0.92
0.79 0.73 0.45 0.33 0.40 0.43 0.41 0.42 0.42 0.50 0.50 0.48 0.46 0.39 0.37 0.35 0.31 0.30 0.30 0.32 0.35 0.39 0.45 0.50 0.51 0.51 0.54 0.58 0.59 0.58 0.61 0.64 0.67 0.72 0.74 0.74 0.73 0.74 0.72 0.73 0.81 0.88 0.90 0.93
0.57 0.43 0.33 0.29 0.27 0.27 0.30 0.39 0.44 0.46 0.47 0.50 0.53 0.47 0.42 0.41 0.39 0.37 0.37 0.37 0.38 0.38 0.43 0.47 0.46 0.48 0.55 0.58 0.57 0.56 0.63 0.69 0.71 0.74 0.78 0.75 0.69 0.68 0.69 0.74 0.88 0.98 0.97 0.95
0.44 0.34 0.29 0.28 0.28 0.29 0.31 0.31 0.31 0.31 0.35 0.47 0.54 0.50 0.43 0.43 0.45 0.47 0.46 0.45 0.44 0.45 0.47 0.47 0.42 0.42 0.52 0.60 0.61 0.62 0.64 0.70 0.75 0.78 0.79 0.77 0.72 0.71 0.74 0.77 0.98 1.24 1.20 1.17
0.42 0.33 0.33 0.33 0.30 0.30 0.33 0.33 0.33 0.34 0.36 0.38 0.42 0.44 0.40 0.42 0.45 0.47 0.49 0.51 0.48 0.45 0.42 0.41 0.39 0.41 0.48 0.55 0.61 0.63 0.63 0.67 0.72 0.80 0.83 0.79 0.74 0.75 0.77 0.77 0.85 0.89 0.94 1.07
0.34 0.29 0.28 0.28 0.26 0.26 0.28 0.31 0.34 0.37 0.36 0.33 0.33 0.35 0.40 0.45 0.46 0.46 0.48 0.49 0.47 0.44 0.42 0.42 0.40 0.42 0.49 0.54 0.59 0.63 0.67 0.68 0.71 0.74 0.78 0.79 0.77 0.74 0.76 0.73 0.72 0.73 0.77 0.85
0.25 0.25 0.27 0.24 0.24 0.23 0.23 0.26 0.28 0.32 0.32 0.29 0.29 0.30 0.35 0.40 0.41 0.40 0.42 0.44 0.43 0.41 0.40 0.40 0.38 0.41 0.47 0.50 0.54 0.60 0.66 0.70 0.72 0.74 0.77 0.76 0.77 0.75 0.72 0.71 0.72 0.72 0.71 0.74
0.21 0.24 0.28 0.24 0.21 0.21 0.22 0.23 0.24 0.26 0.26 0.27 0.26 0.28 0.31 0.36 0.40 0.42 0.41 0.38 0.37 0.37 0.38 0.36 0.35 0.38 0.40 0.42 0.46 0.52 0.57 0.63 0.67 0.70 0.73 0.74 0.75 0.74 0.72 0.69 0.69 0.71 0.71 0.76
0.21 0.22 0.22 0.22 0.24 0.26 0.25 0.24 0.26 0.27 0.26 0.27 0.27 0.28 0.30 0.32 0.34 0.35 0.35 0.34 0.33 0.36 0.39 0.36 0.35 0.37 0.37 0.39 0.41 0.45 0.51 0.61 0.67 0.68 0.69 0.71 0.74 0.74 0.74 0.75 0.74 0.72 0.75 0.82
0.25 0.24 0.25 0.28 0.29 0.31 0.32 0.32 0.30 0.28 0.24 0.22 0.23 0.25 0.26 0.26 0.27 0.28 0.30 0.32 0.32 0.34 0.36 0.37 0.37 0.34 0.34 0.36 0.42 0.45 0.49 0.55 0.63 0.64 0.67 0.70 0.75 0.79 0.80 0.82 0.83 0.79 0.77 0.81
0.29 0.32 0.34 0.38 0.38 0.36 0.35 0.32 0.28 0.26 0.24 0.23 0.23 0.24 0.25 0.25 0.26 0.26 0.28 0.29 0.28 0.29 0.31 0.35 0.37 0.33 0.32 0.35 0.44 0.47 0.52 0.57 0.60 0.64 0.67 0.72 0.79 0.80 0.80 0.82 0.82 0.80 0.77 0.77
0.27 0.30 0.32 0.35 0.37 0.39 0.37 0.33 0.30 0.29 0.29 0.27 0.27 0.28 0.28 0.29 0.29 0.29 0.28 0.27 0.27 0.29 0.31 0.31 0.34 0.31 0.31 0.36 0.48 0.51 0.56 0.61 0.62 0.62 0.66 0.74 0.76 0.72 0.75 0.79 0.81 0.78 0.75 0.75
0.29 0.30 0.32 0.34 0.35 0.36 0.35 0.32 0.29 0.29 0.30 0.31 0.31 0.32 0.32 0.33 0.32 0.32 0.31 0.32 0.34 0.37 0.33 0.32 0.31 0.32 0.36 0.42 0.55 0.59 0.62 0.65 0.67 0.66 0.67 0.69 0.72 0.72 0.74 0.76 0.78 0.78 0.77 0.77
0.34 0.33 0.33 0.33 0.33 0.32 0.31 0.30 0.29 0.29 0.31 0.31 0.32 0.34 0.35 0.36 0.35 0.34 0.33 0.34 0.35 0.35 0.33 0.34 0.35 0.44 0.53 0.61 0.66 0.64 0.64 0.66 0.69 0.71 0.73 0.75 0.75 0.73 0.72 0.75 0.78 0.79 0.79 0.79
0.33 0.34 0.35 0.34 0.31 0.31 0.31 0.31 0.30 0.30 0.30 0.31 0.32 0.34 0.36 0.37 0.36 0.36 0.37 0.40 0.43 0.44 0.40 0.38 0.47 0.66 0.72 0.72 0.65 0.65 0.65 0.64 0.67 0.71 0.75 0.79 0.83 0.82 0.79 0.80 0.84 0.83 0.81 0.83
0.34 0.36 0.37 0.36 0.34 0.33 0.33 0.33 0.33 0.32 0.32 0.33 0.34 0.35 0.37 0.40 0.39 0.41 0.48 0.47 0.46 0.49 0.45 0.46 0.59 0.70 0.71 0.65 0.62 0.62 0.64 0.66 0.68 0.72 0.77 0.82 0.85 0.88 0.90 0.88 0.87 0.88 0.89 0.89
0.39 0.41 0.41 0.39 0.35 0.33 0.35 0.37 0.35 0.35 0.35 0.37 0.38 0.39 0.39 0.41 0.42 0.44 0.50 0.52 0.50 0.49 0.47 0.53 0.60 0.64 0.62 0.59 0.60 0.62 0.66 0.70 0.76 0.79 0.80 0.83 0.84 0.87 0.91 0.93 0.93 0.89 0.89 0.90
0.45 0.45 0.43 0.39 0.37 0.37 0.40 0.39 0.37 0.37 0.35 0.38 0.40 0.41 0.41 0.42 0.47 0.49 0.47 0.48 0.48 0.48 0.49 0.52 0.56 0.57 0.55 0.57 0.61 0.65 0.71 0.78 0.86 0.90 0.89 0.88 0.86 0.87 0.89 0.92 0.97 0.97 0.94 0.93
0.50 0.49 0.47 0.44 0.42 0.41 0.41 0.40 0.40 0.41 0.38 0.38 0.40 0.40 0.39 0.40 0.42 0.44 0.46 0.47 0.47 0.47 0.48 0.49 0.50 0.53 0.55 0.58 0.61 0.66 0.73 0.78 0.80 0.80 0.79 0.81 0.81 0.83 0.87 0.90 0.94 0.96 0.97 0.94
0.48 0.45 0.41 0.39 0.38 0.38 0.38 0.38 0.40 0.43 0.41 0.40 0.41 0.40 0.37 0.37 0.38 0.40 0.42 0.44 0.47 0.47 0.48 0.51 0.52 0.54 0.56 0.58 0.61 0.66 0.70 0.73 0.76 0.79 0.79 0.79 0.80 0.83 0.85 0.90 0.93 0.93 0.93 0.93